Overview Statistics Trail Chart Weather Telemetry Raw packets
 

This is the latest recevied weather packets stored in our database for station/object AG1T-20. If no packets are shown the sender has not sent any weather packets the latest 10 day(s).

<< 49 50 51 52 53 54 55 >>
Time Temp. Humidity Pressure Rain* Wind** Luminosity Snow
1787853004 27.78° C 39% 1022.7 hPa 0 mm - 917 W/m² -
1787852404 27.22° C 41% 1022.7 hPa 0 mm - 915 W/m² -
1787851805 26.67° C - - 0 mm - 100 W/m² -
1787851205 26.11° C 42% 1022.7 hPa 0 mm - 434 W/m² -
1787850605 25.56° C 44% 1022.7 hPa 0 mm - 846 W/m² -
1787850004 25° C 43% 1022.7 hPa 0 mm - 828 W/m² -
1787849405 23.89° C 42% 1022.8 hPa 0 mm - 817 W/m² -
1787848805 23.89° C 46% 1022.8 hPa 0 mm - 807 W/m² -
1787848205 23.89° C 46% 1022.8 hPa 0 mm - 795 W/m² -
1787847605 22.78° C 48% 1022.8 hPa 0 mm - 781 W/m² -
1787847004 22.78° C 50% 1022.8 hPa 0 mm - 766 W/m² -
1787846405 21.67° C 51% 1022.8 hPa 0 mm - 744 W/m² -
1787845805 21.11° C 52% 1023.2 hPa 0 mm - 722 W/m² -
1787845205 20.56° C 54% 1023.2 hPa 0 mm - 700 W/m² -
1787844605 20.56° C 54% 1023.2 hPa 0 mm - 682 W/m² -
1787844005 20° C 53% 1023.2 hPa 0 mm - 654 W/m² -
1787843405 20° C 51% 1023.2 hPa 0 mm - 634 W/m² -
1787842804 18.89° C 56% 1023.2 hPa 0 mm - 494 W/m² -
1787842205 18.89° C 56% 1023.5 hPa 0 mm - 308 W/m² -
1787841605 18.89° C 54% 1023.5 hPa 0 mm - 301 W/m² -
1787841005 20° C 51% 1023.5 hPa 0 mm - 593 W/m² -
1787840404 19.44° C 57% 1023.5 hPa 0 mm - 495 W/m² -
1787839811 17.78° C 61% 1023.5 hPa 0 mm - 428 W/m² -
1787839205 16.67° C 65% 1023.5 hPa 0 mm - 385 W/m² -
1787838605 16.11° C 68% 1023 hPa 0 mm - 338 W/m² -

* Rain latest hour (hover to see other rain measurements)
** Current wind speed in m/s (hover to see current wind gust speed)